Overview Statistics Trail Chart Weather Telemetry Raw packets
 

This is the latest recevied weather packets stored in our database for station/object KC7RJK-2. If no packets are shown the sender has not sent any weather packets the latest 10 day(s).

<< 7 8 9 10 11 12 13 >>
Time Temp. Humidity Pressure Rain* Wind** Luminosity Snow
1788468206 17.78° C 65% 1009.7 hPa 0 mm - - -
1788467605 17.78° C 64% 1009.7 hPa 0 mm - - -
1788467005 18.89° C 62% 1009.9 hPa 0 mm - - -
1788466406 18.89° C 64% 1009.9 hPa 0 mm - - -
1788465806 18.33° C 69% 1009.9 hPa 0 mm - - -
1788465205 17.78° C 70% 1010.1 hPa 0 mm - - -
1788464604 17.22° C 74% 1010.2 hPa 0 mm - - -
1788464005 16.67° C 72% 1010.4 hPa 0 mm - - -
1788463404 16.11° C 74% 1010.5 hPa 0 mm - - -
1788462806 15.56° C 76% 1010.8 hPa 0 mm - - -
1788462206 15.56° C 76% 1011 hPa 0 mm - - -
1788461605 15.56° C 76% 1010.9 hPa 0 mm - - -
1788461004 15.56° C 77% 1011 hPa 0 mm - - -
1788460405 15° C 79% 1011 hPa 0 mm - - -
1788459806 15° C 79% 1010.9 hPa 0 mm - - -
1788459209 14.44° C 81% 1010.9 hPa 0 mm - - -
1788458606 14.44° C 82% 1010.8 hPa 0 mm - - -
1788458005 14.44° C 84% 1010.8 hPa 0 mm - - -
1788457405 14.44° C 85% 1010.8 hPa 0 mm - - -
1788456806 14.44° C 85% 1010.7 hPa 0 mm - - -
1788456205 14.44° C 87% 1010.7 hPa 0 mm - - -
1788455604 13.89° C 88% 1010.6 hPa 0 mm - - -
1788455005 13.89° C 89% 1010.6 hPa 0 mm - - -
1788454405 13.33° C 89% 1010.6 hPa 0 mm - - -
1788453207 13.33° C 90% 1010.7 hPa 0 mm - - -

* Rain latest hour (hover to see other rain measurements)
** Current wind speed in m/s (hover to see current wind gust speed)